Location: McFarlands Corners
(41.4117°N, 81.3382°W)
Time: 11:46:20
(UTC+00:00)

A-11 Canister half - Pass Details

Date: 25 February 2026
Orbit: 1524 x 1683 km, 47.3° (Epoch: 17 March)

Event Time Altitude Azimuth Distance (km) Brightness Sun altitude
Rises 18:20:04 0° 208° (SSW) 4,803 12.5 38.8°
Reaches altitude 10° 18:23:26 10° 201° (SSW) 3,797 12.3 38.7°
Maximum altitude 18:32:10 41° 135° (SE) 2,133 10.6 38.2°
Drops below altitude 10° 18:40:40 10° 70° (ENE) 3,712 10.8 37.7°
Sets 18:43:54 0° 64° (ENE) 4,686 11.2 37.5°
